When you browse on this site, cookies collect data to enhance your experience and personalize the content and advertising you see.
Visit our Privacy Policy to learn more. By continuing to use the site, you agree to this use of cookies and data.
  • en Suisse
  • Liste des pays
  • À 7 jours
  • Température de l'eau
  • Carte satellitaire
  • Carte météo
  • Widgets météo
  • user-avatar
    Se connecter

    Météo par heure à Sari

    Ce jour, 12 Décembre, Mercredi

    Heure Température Précipitation Vent Pression Humidité
    00:00 +16°C° 0 mm 2 m/s 757 mmHg 33%
    01:00 +16°C° 0 mm 2 m/s 757 mmHg 33%
    02:00 +16°C° 0 mm 2 m/s 757 mmHg 31%
    03:00 +16°C° 0 mm 2 m/s 757 mmHg 30%
    04:00 +16°C° 0 mm 2 m/s 757 mmHg 31%
    05:00 +16°C° 0 mm 2 m/s 757 mmHg 29%
    06:00 +16°C° 0 mm 2 m/s 758 mmHg 28%
    07:00 +16°C° 0 mm 2 m/s 758 mmHg 27%
    08:00 +18°C° 0 mm 2 m/s 758 mmHg 25%
    09:00 +21°C° 0 mm 1 m/s 758 mmHg 24%
    10:00 +23°C° 0 mm 1 m/s 758 mmHg 22%
    11:00 +24°C° 0 mm 1 m/s 758 mmHg 21%
    12:00 +25°C° 0 mm 1 m/s 758 mmHg 20%
    13:00 +26°C° 0 mm 1 m/s 758 mmHg 19%
    14:00 +25°C° 0 mm 1 m/s 758 mmHg 22%
    15:00 +24°C° 0 mm 2 m/s 757 mmHg 25%
    16:00 +23°C° 0 mm 2 m/s 757 mmHg 29%
    17:00 +21°C° 0 mm 2 m/s 757 mmHg 30%
    18:00 +19°C° 0 mm 2 m/s 757 mmHg 31%
    19:00 +18°C° 0 mm 2 m/s 757 mmHg 32%
    20:00 +18°C° 0 mm 2 m/s 757 mmHg 31%
    21:00 +17°C° 0 mm 3 m/s 757 mmHg 29%
    22:00 +17°C° 0 mm 3 m/s 757 mmHg 27%
    23:00 +17°C° 0 mm 3 m/s 757 mmHg 25%

    Demain, 13 Décembre, Jeudi

    Heure Température Précipitation Vent Pression Humidité
    00:00 +17°C° 0 mm 3 m/s 757 mmHg 23%
    01:00 +17°C° 0 mm 3 m/s 756 mmHg 21%
    02:00 +17°C° 0 mm 3 m/s 756 mmHg 20%
    03:00 +17°C° 0 mm 3 m/s 756 mmHg 20%
    04:00 +17°C° 0 mm 3 m/s 756 mmHg 19%
    05:00 +17°C° 0 mm 3 m/s 756 mmHg 18%
    06:00 +17°C° 0 mm 3 m/s 756 mmHg 18%
    07:00 +16°C° 0 mm 3 m/s 756 mmHg 17%
    08:00 +18°C° 0 mm 3 m/s 757 mmHg 18%
    09:00 +20°C° 0 mm 2 m/s 757 mmHg 18%
    10:00 +23°C° 0 mm 2 m/s 757 mmHg 19%
    11:00 +25°C° 0 mm 2 m/s 757 mmHg 17%
    12:00 +26°C° 0 mm 2 m/s 757 mmHg 16%
    13:00 +28°C° 0 mm 2 m/s 757 mmHg 14%
    14:00 +26°C° 0 mm 2 m/s 757 mmHg 17%
    15:00 +25°C° 0 mm 2 m/s 757 mmHg 20%
    16:00 +24°C° 0 mm 2 m/s 757 mmHg 23%
    17:00 +21°C° 0 mm 2 m/s 758 mmHg 25%
    18:00 +19°C° 0 mm 2 m/s 758 mmHg 28%
    19:00 +18°C° 0 mm 1 m/s 759 mmHg 30%
    20:00 +18°C° 0 mm 1 m/s 759 mmHg 29%
    21:00 +18°C° 0 mm 1 m/s 760 mmHg 29%
    22:00 +16°C° 0 mm 1 m/s 760 mmHg 28%
    23:00 +16°C° 0 mm 2 m/s 761 mmHg 32%

    Après-demain, 14 Décembre, Vendredi

    Heure Température Précipitation Vent Pression Humidité
    00:00 +15°C° 0 mm 2 m/s 761 mmHg 36%
    01:00 +14°C° 0 mm 3 m/s 761 mmHg 40%
    02:00 +14°C° 0 mm 2 m/s 762 mmHg 48%
    03:00 +14°C° 0 mm 2 m/s 762 mmHg 55%
    04:00 +14°C° 0 mm 2 m/s 763 mmHg 63%
    05:00 +14°C° 0.1 mm 2 m/s 763 mmHg 65%
    06:00 +13°C° 0.1 mm 1 m/s 764 mmHg 67%
    07:00 +13°C° 0.1 mm 1 m/s 764 mmHg 69%
    08:00 +14°C° 0.1 mm 1 m/s 764 mmHg 69%
    09:00 +15°C° 0.1 mm 1 m/s 765 mmHg 70%
    10:00 +16°C° 0.1 mm 1 m/s 765 mmHg 70%
    11:00 +16°C° 0 mm 2 m/s 765 mmHg 70%
    12:00 +17°C° 0 mm 2 m/s 765 mmHg 69%
    13:00 +17°C° 0 mm 2 m/s 764 mmHg 69%
    14:00 +17°C° 0.1 mm 2 m/s 764 mmHg 72%
    15:00 +16°C° 0.1 mm 3 m/s 764 mmHg 76%
    16:00 +16°C° 0.1 mm 3 m/s 764 mmHg 79%
    17:00 +14°C° 0 mm 3 m/s 764 mmHg 80%
    18:00 +14°C° 0 mm 3 m/s 764 mmHg 81%
    19:00 +13°C° 0 mm 3 m/s 764 mmHg 81%
    20:00 +13°C° 0 mm 3 m/s 764 mmHg 78%
    21:00 +13°C° 0 mm 3 m/s 764 mmHg 75%
    22:00 +12°C° 0 mm 3 m/s 764 mmHg 73%
    23:00 +13°C° 0 mm 2 m/s 764 mmHg 71%

    15 Décembre, Samedi

    Heure Température Précipitation Vent Pression Humidité
    00:00 +13°C° 0 mm 2 m/s 764 mmHg 69%
    01:00 +13°C° 0 mm 2 m/s 763 mmHg 68%
    02:00 +12°C° 0 mm 1 m/s 763 mmHg 68%
    03:00 +12°C° 0 mm 1 m/s 763 mmHg 68%
    04:00 +12°C° 0 mm 1 m/s 763 mmHg 69%
    05:00 +12°C° 0 mm 1 m/s 764 mmHg 69%
    06:00 +12°C° 0 mm 1 m/s 764 mmHg 69%
    07:00 +11°C° 0 mm 1 m/s 764 mmHg 70%
    08:00 +13°C° 0 mm 1 m/s 764 mmHg 65%
    09:00 +14°C° 0 mm 1 m/s 765 mmHg 61%
    10:00 +15°C° 0 mm 1 m/s 765 mmHg 56%
    11:00 +16°C° 0 mm 1 m/s 765 mmHg 56%
    12:00 +16°C° 0 mm 2 m/s 765 mmHg 56%
    13:00 +17°C° 0 mm 2 m/s 765 mmHg 56%
    14:00 +17°C° 0 mm 2 m/s 765 mmHg 60%
    15:00 +16°C° 0 mm 2 m/s 765 mmHg 65%
    16:00 +16°C° 0 mm 2 m/s 765 mmHg 69%
    17:00 +15°C° 0.2 mm 2 m/s 766 mmHg 75%
    18:00 +15°C° 0.2 mm 2 m/s 766 mmHg 81%
    19:00 +14°C° 0.2 mm 2 m/s 767 mmHg 87%
    20:00 +14°C° 0 mm 1 m/s 767 mmHg 88%
    21:00 +13°C° 0 mm 1 m/s 767 mmHg 88%
    22:00 +13°C° 0 mm 1 m/s 768 mmHg 89%
    23:00 +13°C° 0 mm 1 m/s 767 mmHg 89%

    16 Décembre, Dimanche

    Heure Température Précipitation Vent Pression Humidité
    00:00 +12°C° 0 mm 1 m/s 767 mmHg 89%
    01:00 +12°C° 0 mm 1 m/s 767 mmHg 89%
    02:00 +12°C° 0 mm 2 m/s 767 mmHg 87%
    03:00 +12°C° 0 mm 2 m/s 767 mmHg 85%
    04:00 +12°C° 0 mm 2 m/s 767 mmHg 83%
    05:00 +10°C° 0 mm 2 m/s 767 mmHg 81%
    06:00 +10°C° 0 mm 2 m/s 767 mmHg 79%
    07:00 +10°C° 0 mm 2 m/s 767 mmHg 77%
    08:00 +13°C° 0 mm 2 m/s 767 mmHg 70%
    09:00 +14°C° 0 mm 2 m/s 767 mmHg 64%
    10:00 +15°C° 0 mm 2 m/s 767 mmHg 57%
    11:00 +16°C° 0 mm 3 m/s 766 mmHg 54%
    12:00 +17°C° 0 mm 3 m/s 765 mmHg 51%
    13:00 +18°C° 0 mm 3 m/s 765 mmHg 48%
    14:00 +18°C° 0 mm 3 m/s 765 mmHg 51%
    15:00 +17°C° 0 mm 3 m/s 764 mmHg 53%
    16:00 +17°C° 0 mm 3 m/s 764 mmHg 56%
    17:00 +16°C° 0 mm 2 m/s 764 mmHg 61%
    18:00 +15°C° 0 mm 2 m/s 765 mmHg 67%
    19:00 +13°C° 0 mm 2 m/s 765 mmHg 72%
    20:00 +13°C° 0 mm 2 m/s 765 mmHg 72%
    21:00 +13°C° 0 mm 2 m/s 765 mmHg 71%
    22:00 +13°C° 0 mm 2 m/s 766 mmHg 71%
    23:00 +13°C° 0 mm 2 m/s 765 mmHg 70%

    17 Décembre, Lundi

    Heure Température Précipitation Vent Pression Humidité
    00:00 +12°C° 0 mm 2 m/s 765 mmHg 69%
    01:00 +12°C° 0 mm 2 m/s 765 mmHg 68%
    02:00 +12°C° 0 mm 2 m/s 765 mmHg 68%
    03:00 +12°C° 0 mm 2 m/s 765 mmHg 68%
    04:00 +12°C° 0 mm 2 m/s 765 mmHg 68%
    05:00 +12°C° 0 mm 2 m/s 765 mmHg 67%
    06:00 +10°C° 0 mm 2 m/s 765 mmHg 65%
    07:00 +10°C° 0 mm 2 m/s 765 mmHg 64%
    08:00 +13°C° 0 mm 2 m/s 765 mmHg 60%
    09:00 +14°C° 0 mm 2 m/s 765 mmHg 55%
    10:00 +16°C° 0 mm 2 m/s 765 mmHg 51%
    11:00 +16°C° 0 mm 2 m/s 765 mmHg 50%
    12:00 +17°C° 0 mm 2 m/s 764 mmHg 49%
    13:00 +17°C° 0 mm 2 m/s 763 mmHg 48%
    14:00 +17°C° 0 mm 2 m/s 763 mmHg 51%
    15:00 +16°C° 0 mm 2 m/s 763 mmHg 55%
    16:00 +16°C° 0 mm 2 m/s 763 mmHg 58%
    17:00 +15°C° 0 mm 2 m/s 763 mmHg 62%
    18:00 +14°C° 0 mm 1 m/s 764 mmHg 67%
    19:00 +13°C° 0 mm 1 m/s 764 mmHg 72%
    20:00 +13°C° 0 mm 1 m/s 764 mmHg 73%
    21:00 +13°C° 0 mm 1 m/s 764 mmHg 73%
    22:00 +12°C° 0 mm 1 m/s 764 mmHg 74%
    23:00 +12°C° 0 mm 1 m/s 764 mmHg 73%
    Voir plus